Year,Month,Day,Hour,Minute,Value (Times are PST for temperature in C)
2007,07,09,00,00,11.10
2007,07,09,00,01,11.10
2007,07,09,00,02,11.10
2007,07,09,00,03,11.10
2007,07,09,00,04,11.10
2007,07,09,00,05,11.10
2007,07,09,00,06,11.10
2007,07,09,00,07,11.10
2007,07,09,00,08,11.10
2007,07,09,00,09,11.10
2007,07,09,00,10,11.10
2007,07,09,00,11,11.10
2007,07,09,00,12,11.10
2007,07,09,00,13,11.10
2007,07,09,00,14,11.10
2007,07,09,00,15,11.10
2007,07,09,00,16,11.10
2007,07,09,00,17,11.10
2007,07,09,00,18,11.10
2007,07,09,00,19,11.00
2007,07,09,00,20,10.90
2007,07,09,00,21,10.90
2007,07,09,00,22,10.90
2007,07,09,00,23,10.90
2007,07,09,00,24,10.90
2007,07,09,00,25,10.90
2007,07,09,00,26,10.90
2007,07,09,00,27,10.90
2007,07,09,00,28,10.90
2007,07,09,00,29,10.90
2007,07,09,00,30,10.90
2007,07,09,00,31,10.90
2007,07,09,00,32,10.90
2007,07,09,00,33,10.90
2007,07,09,00,34,10.90
2007,07,09,00,35,10.90
2007,07,09,00,36,10.90
2007,07,09,00,37,10.90
2007,07,09,00,38,10.90
2007,07,09,00,39,10.90
2007,07,09,00,40,10.90
2007,07,09,00,41,10.90
2007,07,09,00,42,10.90
2007,07,09,00,43,10.90
2007,07,09,00,44,10.90
2007,07,09,00,45,10.80
2007,07,09,00,46,10.80
2007,07,09,00,47,10.80
2007,07,09,00,48,10.80
2007,07,09,00,49,10.80
2007,07,09,00,50,10.80
2007,07,09,00,51,10.80
2007,07,09,00,52,10.70
2007,07,09,00,53,10.70
2007,07,09,00,54,10.70
2007,07,09,00,55,10.70
2007,07,09,00,56,10.70
2007,07,09,00,57,10.70
2007,07,09,00,58,10.70
2007,07,09,00,59,10.70
2007,07,09,01,00,10.70
2007,07,09,01,01,10.70
2007,07,09,01,02,10.70
2007,07,09,01,03,10.70
2007,07,09,01,04,10.70
2007,07,09,01,05,10.70
2007,07,09,01,06,10.70
2007,07,09,01,07,10.70
2007,07,09,01,08,10.80
2007,07,09,01,09,10.80
2007,07,09,01,10,10.80
2007,07,09,01,11,10.80
2007,07,09,01,12,10.80
2007,07,09,01,13,10.80
2007,07,09,01,14,10.80
2007,07,09,01,15,10.80
2007,07,09,01,16,10.80
2007,07,09,01,17,10.80
2007,07,09,01,18,10.80
2007,07,09,01,19,10.80
2007,07,09,01,20,10.80
2007,07,09,01,21,10.80
2007,07,09,01,22,10.70
2007,07,09,01,23,10.70
2007,07,09,01,24,10.70
2007,07,09,01,25,10.70
2007,07,09,01,26,10.70
2007,07,09,01,27,10.70
2007,07,09,01,28,10.70
2007,07,09,01,29,10.70
2007,07,09,01,30,10.70
2007,07,09,01,31,10.60
2007,07,09,01,32,10.60
2007,07,09,01,33,10.60
2007,07,09,01,34,10.60
2007,07,09,01,35,10.60
2007,07,09,01,36,10.60
2007,07,09,01,37,10.60
2007,07,09,01,38,10.60
2007,07,09,01,39,10.60
2007,07,09,01,40,10.60
2007,07,09,01,41,10.60
2007,07,09,01,42,10.60
2007,07,09,01,43,10.60
2007,07,09,01,44,10.60
2007,07,09,01,45,10.60
2007,07,09,01,46,10.60
2007,07,09,01,47,10.60
2007,07,09,01,48,10.60
2007,07,09,01,49,10.60
2007,07,09,01,50,10.50
2007,07,09,01,51,10.40
2007,07,09,01,52,10.40
2007,07,09,01,53,10.40
2007,07,09,01,54,10.40
2007,07,09,01,55,10.40
2007,07,09,01,56,10.40
2007,07,09,01,57,10.40
2007,07,09,01,58,10.40
2007,07,09,01,59,10.40
2007,07,09,02,00,10.40
2007,07,09,02,01,10.30
2007,07,09,02,02,10.30
2007,07,09,02,03,10.30
2007,07,09,02,04,10.30
2007,07,09,02,05,10.30
2007,07,09,02,06,10.30
2007,07,09,02,07,10.30
2007,07,09,02,08,10.20
2007,07,09,02,09,10.20
2007,07,09,02,10,10.20
2007,07,09,02,11,10.20
2007,07,09,02,12,10.20
2007,07,09,02,13,10.10
2007,07,09,02,14,10.10
2007,07,09,02,15,10.10
2007,07,09,02,16,10.10
2007,07,09,02,17,10.10
2007,07,09,02,18,10.10
2007,07,09,02,19,10.10
2007,07,09,02,20,10.10
2007,07,09,02,21,10.00
2007,07,09,02,22,9.90
2007,07,09,02,23,9.90
2007,07,09,02,24,9.90
2007,07,09,02,25,9.90
2007,07,09,02,26,9.90
2007,07,09,02,27,9.90
2007,07,09,02,28,9.90
2007,07,09,02,29,9.90
2007,07,09,02,30,9.90
2007,07,09,02,31,9.90
2007,07,09,02,32,9.90
2007,07,09,02,33,9.90
2007,07,09,02,34,9.90
2007,07,09,02,35,9.90
2007,07,09,02,36,9.80
2007,07,09,02,37,9.80
2007,07,09,02,38,9.80
2007,07,09,02,39,9.80
2007,07,09,02,40,9.80
2007,07,09,02,41,9.80
2007,07,09,02,42,9.80
2007,07,09,02,43,9.70
2007,07,09,02,44,9.70
2007,07,09,02,45,9.70
2007,07,09,02,46,9.70
2007,07,09,02,47,9.70
2007,07,09,02,48,9.70
2007,07,09,02,49,9.70
2007,07,09,02,50,9.70
2007,07,09,02,51,9.70
2007,07,09,02,52,9.70
2007,07,09,02,53,9.70
2007,07,09,02,54,9.70
2007,07,09,02,55,9.60
2007,07,09,02,56,9.60
2007,07,09,02,57,9.60
2007,07,09,02,58,9.60
2007,07,09,02,59,9.60
2007,07,09,03,00,9.60
2007,07,09,03,01,9.60
2007,07,09,03,02,9.60
2007,07,09,03,03,9.60
2007,07,09,03,04,9.60
2007,07,09,03,05,9.60
2007,07,09,03,06,9.60
2007,07,09,03,07,9.50
2007,07,09,03,08,9.50
2007,07,09,03,09,9.50
2007,07,09,03,10,9.50
2007,07,09,03,11,9.50
2007,07,09,03,12,9.50
2007,07,09,03,13,9.50
2007,07,09,03,14,9.50
2007,07,09,03,15,9.50
2007,07,09,03,16,9.50
2007,07,09,03,17,9.50
2007,07,09,03,18,9.50
2007,07,09,03,19,9.50
2007,07,09,03,20,9.50
2007,07,09,03,21,9.50
2007,07,09,03,22,9.50
2007,07,09,03,23,9.50
2007,07,09,03,24,9.50
2007,07,09,03,25,9.40
2007,07,09,03,26,9.40
2007,07,09,03,27,9.40
2007,07,09,03,28,9.40
2007,07,09,03,29,9.40
2007,07,09,03,30,9.40
2007,07,09,03,31,9.30
2007,07,09,03,32,9.30
2007,07,09,03,33,9.30
2007,07,09,03,34,9.30
2007,07,09,03,35,9.30
2007,07,09,03,36,9.30
2007,07,09,03,37,9.30
2007,07,09,03,38,9.30
2007,07,09,03,39,9.30
2007,07,09,03,40,9.30
2007,07,09,03,41,9.30
2007,07,09,03,42,9.30
2007,07,09,03,43,9.30
2007,07,09,03,44,9.40
2007,07,09,03,45,9.40
2007,07,09,03,46,9.30
2007,07,09,03,47,9.30
2007,07,09,03,48,9.30
2007,07,09,03,49,9.30
2007,07,09,03,50,9.30
2007,07,09,03,51,9.20
2007,07,09,03,52,9.20
2007,07,09,03,53,9.20
2007,07,09,03,54,9.20
2007,07,09,03,55,9.20
2007,07,09,03,56,9.20
2007,07,09,03,57,9.20
2007,07,09,03,58,9.20
2007,07,09,03,59,9.20
2007,07,09,04,00,9.20
2007,07,09,04,01,9.20
2007,07,09,04,02,9.20
2007,07,09,04,03,9.20
2007,07,09,04,04,9.20
2007,07,09,04,05,9.20
2007,07,09,04,06,9.20
2007,07,09,04,07,9.20
2007,07,09,04,08,9.20
2007,07,09,04,09,9.20
2007,07,09,04,10,9.20
2007,07,09,04,11,9.20
2007,07,09,04,12,9.20
2007,07,09,04,13,9.20
2007,07,09,04,14,9.20
2007,07,09,04,15,9.20
2007,07,09,04,16,9.20
2007,07,09,04,17,9.10
2007,07,09,04,18,9.10
2007,07,09,04,19,9.10
2007,07,09,04,20,9.00
2007,07,09,04,21,9.00
2007,07,09,04,22,9.00
2007,07,09,04,23,9.00
2007,07,09,04,24,8.90
2007,07,09,04,25,8.90
2007,07,09,04,26,8.90
2007,07,09,04,27,8.90
2007,07,09,04,28,8.90
2007,07,09,04,29,8.90
2007,07,09,04,30,8.90
2007,07,09,04,31,8.90
2007,07,09,04,32,8.90
2007,07,09,04,33,9.00
2007,07,09,04,34,9.00
2007,07,09,04,35,9.10
2007,07,09,04,36,9.10
2007,07,09,04,37,9.20
2007,07,09,04,38,9.20
2007,07,09,04,39,9.20
2007,07,09,04,40,9.20
2007,07,09,04,41,9.20
2007,07,09,04,42,9.20
2007,07,09,04,43,9.10
2007,07,09,04,44,9.10
2007,07,09,04,45,9.00
2007,07,09,04,46,9.00
2007,07,09,04,47,8.90
2007,07,09,04,48,8.90
2007,07,09,04,49,8.90
2007,07,09,04,50,8.90
2007,07,09,04,51,8.90
2007,07,09,04,52,8.80
2007,07,09,04,53,8.80
2007,07,09,04,54,8.80
2007,07,09,04,55,8.80
2007,07,09,04,56,8.80
2007,07,09,04,57,8.80
2007,07,09,04,58,8.70
2007,07,09,04,59,8.70
2007,07,09,05,00,8.70
2007,07,09,05,01,8.70
2007,07,09,05,02,8.70
2007,07,09,05,03,8.70
2007,07,09,05,04,8.70
2007,07,09,05,05,8.80
2007,07,09,05,06,8.80
2007,07,09,05,07,8.80
2007,07,09,05,08,8.80
2007,07,09,05,09,8.80
2007,07,09,05,10,8.80
2007,07,09,05,11,8.80
2007,07,09,05,12,8.80
2007,07,09,05,13,8.90
2007,07,09,05,14,8.90
2007,07,09,05,15,8.90
2007,07,09,05,16,9.00
2007,07,09,05,17,9.10
2007,07,09,05,18,9.10
2007,07,09,05,19,9.10
2007,07,09,05,20,9.10
2007,07,09,05,21,9.20
2007,07,09,05,22,9.20
2007,07,09,05,23,9.30
2007,07,09,05,24,9.40
2007,07,09,05,25,9.50
2007,07,09,05,26,9.50
2007,07,09,05,27,9.50
2007,07,09,05,28,9.40
2007,07,09,05,29,9.40
2007,07,09,05,30,9.40
2007,07,09,05,31,9.40
2007,07,09,05,32,9.40
2007,07,09,05,33,9.40
2007,07,09,05,34,9.30
2007,07,09,05,35,9.30
2007,07,09,05,36,9.30
2007,07,09,05,37,9.30
2007,07,09,05,38,9.30
2007,07,09,05,39,9.30
2007,07,09,05,40,9.30
2007,07,09,05,41,9.20
2007,07,09,05,42,9.20
2007,07,09,05,43,9.20
2007,07,09,05,44,9.20
2007,07,09,05,45,9.20
2007,07,09,05,46,9.20
2007,07,09,05,47,9.20
2007,07,09,05,48,9.10
2007,07,09,05,49,9.00
2007,07,09,05,50,9.00
2007,07,09,05,51,8.90
2007,07,09,05,52,8.90
2007,07,09,05,53,8.80
2007,07,09,05,54,8.80
2007,07,09,05,55,8.80
2007,07,09,05,56,8.80
2007,07,09,05,57,8.70
2007,07,09,05,58,8.70
2007,07,09,05,59,8.70
2007,07,09,06,00,8.80
2007,07,09,06,01,8.80
2007,07,09,06,02,8.90
2007,07,09,06,03,8.90
2007,07,09,06,04,9.00
2007,07,09,06,05,9.00
2007,07,09,06,06,9.10
2007,07,09,06,07,9.10
2007,07,09,06,08,9.20
2007,07,09,06,09,9.20
2007,07,09,06,10,9.20
2007,07,09,06,11,9.30
2007,07,09,06,12,9.30
2007,07,09,06,13,9.30
2007,07,09,06,14,9.20
2007,07,09,06,15,9.20
2007,07,09,06,16,9.20
2007,07,09,06,17,9.30
2007,07,09,06,18,9.40
2007,07,09,06,19,9.50
2007,07,09,06,20,9.70
2007,07,09,06,21,9.80
2007,07,09,06,22,9.90
2007,07,09,06,23,9.90
2007,07,09,06,24,9.90
2007,07,09,06,25,10.00
2007,07,09,06,26,10.10
2007,07,09,06,27,10.10
2007,07,09,06,28,10.10
2007,07,09,06,29,10.10
2007,07,09,06,30,10.10
2007,07,09,06,31,10.10
2007,07,09,06,32,10.10
2007,07,09,06,33,10.10
2007,07,09,06,34,10.10
2007,07,09,06,35,10.10
2007,07,09,06,36,10.10
2007,07,09,06,37,10.10
2007,07,09,06,38,10.20
2007,07,09,06,39,10.20
2007,07,09,06,40,10.20
2007,07,09,06,41,10.30
2007,07,09,06,42,10.30
2007,07,09,06,43,10.40
2007,07,09,06,44,10.40
2007,07,09,06,45,10.50
2007,07,09,06,46,10.60
2007,07,09,06,47,10.60
2007,07,09,06,48,10.60
2007,07,09,06,49,10.70
2007,07,09,06,50,10.70
2007,07,09,06,51,10.80
2007,07,09,06,52,10.90
2007,07,09,06,53,10.90
2007,07,09,06,54,11.00
2007,07,09,06,55,11.10
2007,07,09,06,56,11.10
2007,07,09,06,57,11.20
2007,07,09,06,58,11.30
2007,07,09,06,59,11.40
2007,07,09,07,00,11.60
2007,07,09,07,01,11.70
2007,07,09,07,02,11.80
2007,07,09,07,03,11.80
2007,07,09,07,04,11.80
2007,07,09,07,05,11.80
2007,07,09,07,06,11.80
2007,07,09,07,07,11.80
2007,07,09,07,08,11.80
2007,07,09,07,09,11.80
2007,07,09,07,10,11.80
2007,07,09,07,11,11.90
2007,07,09,07,12,11.90
2007,07,09,07,13,11.90
2007,07,09,07,14,12.00
2007,07,09,07,15,12.10
2007,07,09,07,16,12.10
2007,07,09,07,17,12.20
2007,07,09,07,18,12.20
2007,07,09,07,19,12.30
2007,07,09,07,20,12.30
2007,07,09,07,21,12.40
2007,07,09,07,22,12.50
2007,07,09,07,23,12.60
2007,07,09,07,24,12.60
2007,07,09,07,25,12.60
2007,07,09,07,26,12.70
2007,07,09,07,27,12.70
2007,07,09,07,28,12.80
2007,07,09,07,29,12.80
2007,07,09,07,30,12.90
2007,07,09,07,31,13.00
2007,07,09,07,32,13.10
2007,07,09,07,33,13.10
2007,07,09,07,34,13.20
2007,07,09,07,35,13.30
2007,07,09,07,36,13.30
2007,07,09,07,37,13.40
2007,07,09,07,38,13.50
2007,07,09,07,39,13.60
2007,07,09,07,40,13.70
2007,07,09,07,41,13.70
2007,07,09,07,42,13.70
2007,07,09,07,43,13.70
2007,07,09,07,44,13.60
2007,07,09,07,45,13.60
2007,07,09,07,46,13.50
2007,07,09,07,47,13.50
2007,07,09,07,48,13.50
2007,07,09,07,49,13.50
2007,07,09,07,50,13.50
2007,07,09,07,51,13.50
2007,07,09,07,52,13.60
2007,07,09,07,53,13.60
2007,07,09,07,54,13.60
2007,07,09,07,55,13.70
2007,07,09,07,56,13.80
2007,07,09,07,57,13.90
2007,07,09,07,58,14.00
2007,07,09,07,59,14.10
2007,07,09,08,00,14.20
2007,07,09,08,01,14.20
2007,07,09,08,02,14.30
2007,07,09,08,03,14.40
2007,07,09,08,04,14.50
2007,07,09,08,05,14.50
2007,07,09,08,06,14.60
2007,07,09,08,07,14.60
2007,07,09,08,08,14.60
2007,07,09,08,09,14.70
2007,07,09,08,10,14.70
2007,07,09,08,11,14.70
2007,07,09,08,12,14.80
2007,07,09,08,13,14.80
2007,07,09,08,14,14.90
2007,07,09,08,15,14.90
2007,07,09,08,16,15.00
2007,07,09,08,17,15.00
2007,07,09,08,18,14.90
2007,07,09,08,19,14.90
2007,07,09,08,20,14.90
2007,07,09,08,21,15.00
2007,07,09,08,22,15.00
2007,07,09,08,23,15.00
2007,07,09,08,24,15.00
2007,07,09,08,25,15.00
2007,07,09,08,26,15.00
2007,07,09,08,27,15.00
2007,07,09,08,28,15.00
2007,07,09,08,29,15.00
2007,07,09,08,30,14.90
2007,07,09,08,31,14.80
2007,07,09,08,32,14.80
2007,07,09,08,33,14.80
2007,07,09,08,34,14.70
2007,07,09,08,35,14.60
2007,07,09,08,36,14.70
2007,07,09,08,37,14.60
2007,07,09,08,38,14.60
2007,07,09,08,39,14.60
2007,07,09,08,40,14.50
2007,07,09,08,41,14.50
2007,07,09,08,42,14.50
2007,07,09,08,43,14.40
2007,07,09,08,44,14.50
2007,07,09,08,45,14.50
2007,07,09,08,46,14.60
2007,07,09,08,47,14.70
2007,07,09,08,48,14.60
2007,07,09,08,49,14.70
2007,07,09,08,50,14.70
2007,07,09,08,51,14.80
2007,07,09,08,52,14.80
2007,07,09,08,53,14.60
2007,07,09,08,54,14.50
2007,07,09,08,55,14.40
2007,07,09,08,56,14.30
2007,07,09,08,57,14.40
2007,07,09,08,58,14.50
2007,07,09,08,59,14.70
2007,07,09,09,00,15.00
2007,07,09,09,01,15.20
2007,07,09,09,02,15.20
2007,07,09,09,03,15.20
2007,07,09,09,04,15.20
2007,07,09,09,05,15.30
2007,07,09,09,06,15.50
2007,07,09,09,07,15.60
2007,07,09,09,08,15.60
2007,07,09,09,09,15.70
2007,07,09,09,10,15.80
2007,07,09,09,11,15.80
2007,07,09,09,12,16.00
2007,07,09,09,13,15.90
2007,07,09,09,14,16.10
2007,07,09,09,15,16.20
2007,07,09,09,16,16.30
2007,07,09,09,17,16.50
2007,07,09,09,18,16.60
2007,07,09,09,19,16.80
2007,07,09,09,20,16.80
2007,07,09,09,21,16.80
2007,07,09,09,22,16.60
2007,07,09,09,23,16.40
2007,07,09,09,24,16.30
2007,07,09,09,25,16.20
2007,07,09,09,26,16.10
2007,07,09,09,27,16.00
2007,07,09,09,28,15.80
2007,07,09,09,29,15.80
2007,07,09,09,30,15.80
2007,07,09,09,31,15.80
2007,07,09,09,32,15.80
2007,07,09,09,33,15.80
2007,07,09,09,34,15.90
2007,07,09,09,35,16.10
2007,07,09,09,36,16.20
2007,07,09,09,37,16.40
2007,07,09,09,38,16.40
2007,07,09,09,39,16.40
2007,07,09,09,40,16.40
2007,07,09,09,41,16.30
2007,07,09,09,42,16.30
2007,07,09,09,43,16.20
2007,07,09,09,44,16.20
2007,07,09,09,45,16.20
2007,07,09,09,46,16.30
2007,07,09,09,47,16.40
2007,07,09,09,48,16.50
2007,07,09,09,49,16.70
2007,07,09,09,50,16.90
2007,07,09,09,51,17.00
2007,07,09,09,52,17.20
2007,07,09,09,53,17.30
2007,07,09,09,54,17.30
2007,07,09,09,55,17.30
2007,07,09,09,56,17.40
2007,07,09,09,57,17.50
2007,07,09,09,58,17.60
2007,07,09,09,59,17.70
2007,07,09,10,00,17.70
2007,07,09,10,01,17.80
2007,07,09,10,02,17.50
2007,07,09,10,03,17.20
2007,07,09,10,04,17.00
2007,07,09,10,05,16.80
2007,07,09,10,06,16.70
2007,07,09,10,07,16.70
2007,07,09,10,08,16.70
2007,07,09,10,09,16.60
2007,07,09,10,10,16.70
2007,07,09,10,11,16.60
2007,07,09,10,12,16.70
2007,07,09,10,13,16.60
2007,07,09,10,14,16.40
2007,07,09,10,15,16.50
2007,07,09,10,16,16.70
2007,07,09,10,17,16.70
2007,07,09,10,18,16.70
2007,07,09,10,19,16.80
2007,07,09,10,20,16.80
2007,07,09,10,21,16.90
2007,07,09,10,22,16.90
2007,07,09,10,23,16.80
2007,07,09,10,24,16.70
2007,07,09,10,25,16.60
2007,07,09,10,26,16.40
2007,07,09,10,27,16.30
2007,07,09,10,28,16.10
2007,07,09,10,29,16.10
2007,07,09,10,30,16.20
2007,07,09,10,31,16.20
2007,07,09,10,32,16.30
2007,07,09,10,33,16.30
2007,07,09,10,34,16.30
2007,07,09,10,35,16.20
2007,07,09,10,36,16.30
2007,07,09,10,37,16.50
2007,07,09,10,38,16.70
2007,07,09,10,39,16.90
2007,07,09,10,40,17.10
2007,07,09,10,41,17.20
2007,07,09,10,42,17.10
2007,07,09,10,43,17.00
2007,07,09,10,44,16.70
2007,07,09,10,45,16.50
2007,07,09,10,46,16.60
2007,07,09,10,47,16.60
2007,07,09,10,48,16.60
2007,07,09,10,49,16.70
2007,07,09,10,50,16.80
2007,07,09,10,51,16.80
2007,07,09,10,52,16.70
2007,07,09,10,53,16.70
2007,07,09,10,54,16.80
2007,07,09,10,55,17.00
2007,07,09,10,56,17.00
2007,07,09,10,57,17.00
2007,07,09,10,58,17.10
2007,07,09,10,59,17.20
2007,07,09,11,00,17.30
2007,07,09,11,01,17.40
2007,07,09,11,02,17.50
2007,07,09,11,03,17.70
2007,07,09,11,04,17.80
2007,07,09,11,05,17.90
2007,07,09,11,06,18.00
2007,07,09,11,07,18.20
2007,07,09,11,08,18.20
2007,07,09,11,09,18.30
2007,07,09,11,10,18.40
2007,07,09,11,11,18.50
2007,07,09,11,12,18.60
2007,07,09,11,13,18.80
2007,07,09,11,14,18.90
2007,07,09,11,15,19.10
2007,07,09,11,16,19.00
2007,07,09,11,17,18.70
2007,07,09,11,18,18.60
2007,07,09,11,19,18.70
2007,07,09,11,20,18.70
2007,07,09,11,21,18.80
2007,07,09,11,22,18.90
2007,07,09,11,23,18.90
2007,07,09,11,24,19.00
2007,07,09,11,25,19.10
2007,07,09,11,26,19.10
2007,07,09,11,27,19.30
2007,07,09,11,28,19.30
2007,07,09,11,29,19.40
2007,07,09,11,30,19.40
2007,07,09,11,31,19.40
2007,07,09,11,32,19.30
2007,07,09,11,33,19.20
2007,07,09,11,34,19.10
2007,07,09,11,35,19.20
2007,07,09,11,36,19.20
2007,07,09,11,37,19.30
2007,07,09,11,38,19.50
2007,07,09,11,39,19.70
2007,07,09,11,40,19.90
2007,07,09,11,41,20.10
2007,07,09,11,42,20.20
2007,07,09,11,43,20.10
2007,07,09,11,44,19.90
2007,07,09,11,45,19.90
2007,07,09,11,46,19.90
2007,07,09,11,47,19.90
2007,07,09,11,48,19.90
2007,07,09,11,49,19.90
2007,07,09,11,50,19.90
2007,07,09,11,51,19.90
2007,07,09,11,52,19.80
2007,07,09,11,53,19.80
2007,07,09,11,54,19.90
2007,07,09,11,55,19.90
2007,07,09,11,56,19.90
2007,07,09,11,57,19.90
2007,07,09,11,58,19.90
2007,07,09,11,59,19.90
2007,07,09,12,00,19.90
2007,07,09,12,01,20.00
2007,07,09,12,02,20.10
2007,07,09,12,03,20.20
2007,07,09,12,04,20.30
2007,07,09,12,05,20.40
2007,07,09,12,06,20.40
2007,07,09,12,07,20.50
2007,07,09,12,08,20.50
2007,07,09,12,09,20.60
2007,07,09,12,10,20.60
2007,07,09,12,11,20.70
2007,07,09,12,12,20.80
2007,07,09,12,13,21.00
2007,07,09,12,14,21.10
2007,07,09,12,15,21.30
2007,07,09,12,16,21.40
2007,07,09,12,17,21.50
2007,07,09,12,18,21.70
2007,07,09,12,19,21.80
2007,07,09,12,20,21.60
2007,07,09,12,21,21.30
2007,07,09,12,22,21.20
2007,07,09,12,23,21.10
2007,07,09,12,24,21.10
2007,07,09,12,25,21.10
2007,07,09,12,26,21.20
2007,07,09,12,27,21.10
2007,07,09,12,28,21.00
2007,07,09,12,29,21.00
2007,07,09,12,30,21.00
2007,07,09,12,31,21.00
2007,07,09,12,32,21.10
2007,07,09,12,33,21.10
2007,07,09,12,34,21.30
2007,07,09,12,35,21.60
2007,07,09,12,36,21.60
2007,07,09,12,37,21.60
2007,07,09,12,38,21.70
2007,07,09,12,39,21.80
2007,07,09,12,40,21.80
2007,07,09,12,41,21.70
2007,07,09,12,42,21.70
2007,07,09,12,43,21.60
2007,07,09,12,44,21.60
2007,07,09,12,45,21.60
2007,07,09,12,46,21.60
2007,07,09,12,47,21.60
2007,07,09,12,48,21.60
2007,07,09,12,49,21.60
2007,07,09,12,50,21.50
2007,07,09,12,51,21.30
2007,07,09,12,52,21.20
2007,07,09,12,53,21.10
2007,07,09,12,54,21.00
2007,07,09,12,55,21.00
2007,07,09,12,56,21.00
2007,07,09,12,57,20.80
2007,07,09,12,58,20.80
2007,07,09,12,59,20.80
2007,07,09,13,00,20.80
2007,07,09,13,01,20.70
2007,07,09,13,02,20.50
2007,07,09,13,03,20.40
2007,07,09,13,04,20.40
2007,07,09,13,05,20.50
2007,07,09,13,06,20.50
2007,07,09,13,07,20.70
2007,07,09,13,08,20.80
2007,07,09,13,09,20.90
2007,07,09,13,10,20.90
2007,07,09,13,11,21.00
2007,07,09,13,12,21.00
2007,07,09,13,13,21.00
2007,07,09,13,14,21.00
2007,07,09,13,15,20.90
2007,07,09,13,16,20.90
2007,07,09,13,17,21.00
2007,07,09,13,18,21.00
2007,07,09,13,19,21.00
2007,07,09,13,20,21.00
2007,07,09,13,21,21.00
2007,07,09,13,22,20.80
2007,07,09,13,23,20.70
2007,07,09,13,24,20.80
2007,07,09,13,25,20.90
2007,07,09,13,26,21.00
2007,07,09,13,27,21.00
2007,07,09,13,28,21.00
2007,07,09,13,29,21.20
2007,07,09,13,30,21.20
2007,07,09,13,31,21.10
2007,07,09,13,32,21.00
2007,07,09,13,33,21.00
2007,07,09,13,34,21.00
2007,07,09,13,35,21.00
2007,07,09,13,36,21.10
2007,07,09,13,37,21.10
2007,07,09,13,38,21.20
2007,07,09,13,39,21.30
2007,07,09,13,40,21.30
2007,07,09,13,41,21.30
2007,07,09,13,42,21.50
2007,07,09,13,43,21.60
2007,07,09,13,44,21.70
2007,07,09,13,45,21.60
2007,07,09,13,46,21.70
2007,07,09,13,47,21.70
2007,07,09,13,48,21.70
2007,07,09,13,49,21.90
2007,07,09,13,50,22.10
2007,07,09,13,51,22.20
2007,07,09,13,52,22.30
2007,07,09,13,53,22.50
2007,07,09,13,54,22.50
2007,07,09,13,55,22.60
2007,07,09,13,56,22.60
2007,07,09,13,57,22.80
2007,07,09,13,58,22.90
2007,07,09,13,59,23.10
2007,07,09,14,00,23.30
2007,07,09,14,01,23.50
2007,07,09,14,02,23.60
2007,07,09,14,03,23.60
2007,07,09,14,04,23.60
2007,07,09,14,05,23.40
2007,07,09,14,06,23.40
2007,07,09,14,07,23.60
2007,07,09,14,08,23.60
2007,07,09,14,09,23.70
2007,07,09,14,10,23.80
2007,07,09,14,11,23.70
2007,07,09,14,12,23.70
2007,07,09,14,13,23.70
2007,07,09,14,14,23.70
2007,07,09,14,15,23.70
2007,07,09,14,16,23.80
2007,07,09,14,17,23.90
2007,07,09,14,18,24.10
2007,07,09,14,19,24.10
2007,07,09,14,20,24.10
2007,07,09,14,21,23.90
2007,07,09,14,22,23.70
2007,07,09,14,23,23.60
2007,07,09,14,24,23.60
2007,07,09,14,25,23.60
2007,07,09,14,26,23.50
2007,07,09,14,27,23.40
2007,07,09,14,28,23.50
2007,07,09,14,29,23.60
2007,07,09,14,30,23.70
2007,07,09,14,31,23.70
2007,07,09,14,32,23.80
2007,07,09,14,33,24.00
2007,07,09,14,34,24.20
2007,07,09,14,35,24.40
2007,07,09,14,36,24.40
2007,07,09,14,37,24.20
2007,07,09,14,38,24.10
2007,07,09,14,39,24.10
2007,07,09,14,40,24.00
2007,07,09,14,41,23.90
2007,07,09,14,42,23.80
2007,07,09,14,43,23.70
2007,07,09,14,44,23.70
2007,07,09,14,45,23.90
2007,07,09,14,46,24.00
2007,07,09,14,47,24.10
2007,07,09,14,48,24.10
2007,07,09,14,49,24.10
2007,07,09,14,50,24.20
2007,07,09,14,51,24.40
2007,07,09,14,52,24.40
2007,07,09,14,53,24.40
2007,07,09,14,54,24.40
2007,07,09,14,55,24.50
2007,07,09,14,56,24.50
2007,07,09,14,57,24.60
2007,07,09,14,58,24.70
2007,07,09,14,59,24.70
2007,07,09,15,00,24.70
2007,07,09,15,01,24.80
2007,07,09,15,02,24.80
2007,07,09,15,03,24.60
2007,07,09,15,04,24.40
2007,07,09,15,05,24.20
2007,07,09,15,06,24.30
2007,07,09,15,07,24.30
2007,07,09,15,08,24.40
2007,07,09,15,09,24.50
2007,07,09,15,10,24.50
2007,07,09,15,11,24.40
2007,07,09,15,12,24.10
2007,07,09,15,13,24.10
2007,07,09,15,14,23.90
2007,07,09,15,15,23.70
2007,07,09,15,16,23.50
2007,07,09,15,17,23.30
2007,07,09,15,18,23.10
2007,07,09,15,19,22.90
2007,07,09,15,20,22.90
2007,07,09,15,21,22.80
2007,07,09,15,22,22.90
2007,07,09,15,23,23.10
2007,07,09,15,24,23.50
2007,07,09,15,25,23.70
2007,07,09,15,26,24.00
2007,07,09,15,27,24.10
2007,07,09,15,28,24.10
2007,07,09,15,29,24.20
2007,07,09,15,30,24.30
2007,07,09,15,31,24.50
2007,07,09,15,32,24.80
2007,07,09,15,33,24.80
2007,07,09,15,34,24.80
2007,07,09,15,35,24.70
2007,07,09,15,36,24.60
2007,07,09,15,37,24.40
2007,07,09,15,38,24.20
2007,07,09,15,39,24.10
2007,07,09,15,40,24.10
2007,07,09,15,41,24.20
2007,07,09,15,42,24.20
2007,07,09,15,43,24.20
2007,07,09,15,44,24.20
2007,07,09,15,45,24.10
2007,07,09,15,46,24.20
2007,07,09,15,47,24.20
2007,07,09,15,48,24.20
2007,07,09,15,49,24.40
2007,07,09,15,50,24.50
2007,07,09,15,51,24.40
2007,07,09,15,52,24.40
2007,07,09,15,53,24.40
2007,07,09,15,54,24.40
2007,07,09,15,55,24.50
2007,07,09,15,56,24.70
2007,07,09,15,57,24.80
2007,07,09,15,58,24.90
2007,07,09,15,59,24.80
2007,07,09,16,00,24.70
2007,07,09,16,01,24.50
2007,07,09,16,02,24.60
2007,07,09,16,03,24.70
2007,07,09,16,04,24.90
2007,07,09,16,05,24.90
2007,07,09,16,06,24.90
2007,07,09,16,07,24.90
2007,07,09,16,08,24.80
2007,07,09,16,09,24.80
2007,07,09,16,10,25.00
2007,07,09,16,11,25.20
2007,07,09,16,12,25.40
2007,07,09,16,13,25.50
2007,07,09,16,14,25.50
2007,07,09,16,15,25.40
2007,07,09,16,16,25.40
2007,07,09,16,17,25.30
2007,07,09,16,18,25.10
2007,07,09,16,19,24.90
2007,07,09,16,20,24.90
2007,07,09,16,21,24.90
2007,07,09,16,22,24.90
2007,07,09,16,23,25.00
2007,07,09,16,24,25.20
2007,07,09,16,25,25.40
2007,07,09,16,26,25.60
2007,07,09,16,27,25.70
2007,07,09,16,28,25.50
2007,07,09,16,29,25.40
2007,07,09,16,30,25.40
2007,07,09,16,31,25.20
2007,07,09,16,32,25.20
2007,07,09,16,33,25.30
2007,07,09,16,34,25.20
2007,07,09,16,35,25.20
2007,07,09,16,36,25.20
2007,07,09,16,37,25.30
2007,07,09,16,38,25.40
2007,07,09,16,39,25.40
2007,07,09,16,40,25.50
2007,07,09,16,41,25.50
2007,07,09,16,42,25.60
2007,07,09,16,43,25.50
2007,07,09,16,44,25.40
2007,07,09,16,45,25.40
2007,07,09,16,46,25.30
2007,07,09,16,47,25.30
2007,07,09,16,48,25.20
2007,07,09,16,49,25.20
2007,07,09,16,50,25.00
2007,07,09,16,51,25.10
2007,07,09,16,52,25.30
2007,07,09,16,53,25.30
2007,07,09,16,54,25.20
2007,07,09,16,55,25.20
2007,07,09,16,56,25.20
2007,07,09,16,57,25.20
2007,07,09,16,58,25.30
2007,07,09,16,59,25.30
2007,07,09,17,00,25.40
2007,07,09,17,01,25.40
2007,07,09,17,02,25.40
2007,07,09,17,03,25.50
2007,07,09,17,04,25.50
2007,07,09,17,05,25.50
2007,07,09,17,06,25.50
2007,07,09,17,07,25.40
2007,07,09,17,08,25.40
2007,07,09,17,09,25.40
2007,07,09,17,10,25.40
2007,07,09,17,11,25.60
2007,07,09,17,12,25.80
2007,07,09,17,13,26.00
2007,07,09,17,14,26.10
2007,07,09,17,15,26.20
2007,07,09,17,16,26.20
2007,07,09,17,17,26.20
2007,07,09,17,18,26.30
2007,07,09,17,19,26.40
2007,07,09,17,20,26.30
2007,07,09,17,21,26.20
2007,07,09,17,22,26.00
2007,07,09,17,23,25.90
2007,07,09,17,24,25.80
2007,07,09,17,25,25.70
2007,07,09,17,26,25.50
2007,07,09,17,27,25.50
2007,07,09,17,28,25.50
2007,07,09,17,29,25.50
2007,07,09,17,30,25.50